Track STARLINK-1396 now! 10-day predictions STARLINK-1396 is classified as:
1 45681U 20035AA 21027.51223851 .00002421 00000-0 18139-3 0 9997 2 45681 53.0253 158.6722 0000699 83.6996 276.4072 15.06394590 37448